Location: Finnegan
(51.1333°N, 112.0833°W)
Time: 01:54:59
(UTC+00:00)

N. Korean satellite - Pass Details

Date: 08 December 2021
Orbit: 446 x 492 km, 97.3° (Epoch: 16 January)

Event Time Altitude Azimuth Distance (km) Brightness Sun altitude
Rises 12:12:51 0° 22° (NNE) 2,466 10.4 -28.0°
Reaches altitude 10° 12:15:06 10° 35° (NE) 1,586 9.5 -27.6°
Maximum altitude 12:18:04 28° 96° (E) 883 8.5 -27.2°
Drops below altitude 10° 12:21:01 10° 157° (SSE) 1,574 9.4 -26.7°
Sets 12:23:13 0° 169° (S) 2,443 10.3 -26.4°
